Year,Month,Day,Hour,Minute,Value (Times are PST for temperature in C)
2008,05,17,00,00,14.30
2008,05,17,00,01,14.20
2008,05,17,00,02,14.20
2008,05,17,00,03,14.20
2008,05,17,00,04,14.20
2008,05,17,00,05,14.20
2008,05,17,00,06,14.20
2008,05,17,00,07,14.20
2008,05,17,00,08,14.20
2008,05,17,00,09,14.10
2008,05,17,00,10,14.10
2008,05,17,00,11,14.20
2008,05,17,00,12,14.20
2008,05,17,00,13,14.20
2008,05,17,01,02,13.60
2008,05,17,01,03,13.60
2008,05,17,01,04,13.60
2008,05,17,01,05,13.60
2008,05,17,01,06,13.60
2008,05,17,01,07,13.60
2008,05,17,01,08,13.60
2008,05,17,01,09,13.50
2008,05,17,01,10,13.50
2008,05,17,01,11,13.50
2008,05,17,01,12,13.50
2008,05,17,01,13,13.40
2008,05,17,01,14,13.40
2008,05,17,01,15,13.40
2008,05,17,01,16,13.40
2008,05,17,01,17,13.40
2008,05,17,01,18,13.30
2008,05,17,01,19,13.30
2008,05,17,01,20,13.30
2008,05,17,01,21,13.30
2008,05,17,01,22,13.30
2008,05,17,01,23,13.20
2008,05,17,01,24,13.20
2008,05,17,01,25,13.20
2008,05,17,01,26,13.20
2008,05,17,01,27,13.20
2008,05,17,01,28,13.20
2008,05,17,01,29,13.20
2008,05,17,01,30,13.20
2008,05,17,01,31,13.20
2008,05,17,01,32,13.20
2008,05,17,01,33,13.10
2008,05,17,01,34,13.10
2008,05,17,01,35,13.10
2008,05,17,01,36,13.10
2008,05,17,01,37,13.10
2008,05,17,01,38,13.10
2008,05,17,01,39,13.10
2008,05,17,01,40,13.10
2008,05,17,01,41,13.10
2008,05,17,01,42,13.10
2008,05,17,01,43,13.10
2008,05,17,01,44,13.10
2008,05,17,01,45,13.10
2008,05,17,01,46,13.10
2008,05,17,01,47,13.10
2008,05,17,01,48,13.00
2008,05,17,01,49,13.00
2008,05,17,01,50,13.00
2008,05,17,01,51,13.00
2008,05,17,01,52,13.00
2008,05,17,01,53,13.00
2008,05,17,01,54,13.00
2008,05,17,01,55,13.00
2008,05,17,01,56,13.00
2008,05,17,01,57,13.00
2008,05,17,01,58,13.00
2008,05,17,01,59,13.00
2008,05,17,02,00,13.00
2008,05,17,02,01,13.00
2008,05,17,02,02,12.90
2008,05,17,02,03,12.90
2008,05,17,02,04,12.90
2008,05,17,02,05,12.90
2008,05,17,02,06,12.80
2008,05,17,02,07,12.80
2008,05,17,02,08,12.80
2008,05,17,02,09,12.80
2008,05,17,02,10,12.80
2008,05,17,02,11,12.80
2008,05,17,02,12,12.70
2008,05,17,02,13,12.70
2008,05,17,02,14,12.70
2008,05,17,02,15,12.70
2008,05,17,02,16,12.70
2008,05,17,02,17,12.70
2008,05,17,02,18,12.70
2008,05,17,02,19,12.70
2008,05,17,02,20,12.70
2008,05,17,02,21,12.70
2008,05,17,02,22,12.70
2008,05,17,02,23,12.70
2008,05,17,02,24,12.70
2008,05,17,02,25,12.70
2008,05,17,02,26,12.70
2008,05,17,02,27,12.70
2008,05,17,02,28,12.70
2008,05,17,02,29,12.70
2008,05,17,02,30,12.70
2008,05,17,02,31,12.70
2008,05,17,02,32,12.60
2008,05,17,02,33,12.60
2008,05,17,02,34,12.60
2008,05,17,02,35,12.60
2008,05,17,02,36,12.60
2008,05,17,02,37,12.60
2008,05,17,02,38,12.60
2008,05,17,02,39,12.60
2008,05,17,02,40,12.60
2008,05,17,02,41,12.60
2008,05,17,02,42,12.60
2008,05,17,02,43,12.60
2008,05,17,02,44,12.60
2008,05,17,02,45,12.60
2008,05,17,02,46,12.50
2008,05,17,02,47,12.50
2008,05,17,02,48,12.60
2008,05,17,02,49,12.60
2008,05,17,02,50,12.60
2008,05,17,02,51,12.60
2008,05,17,02,52,12.60
2008,05,17,02,53,12.60
2008,05,17,02,54,12.60
2008,05,17,02,55,12.60
2008,05,17,02,56,12.60
2008,05,17,02,57,12.60
2008,05,17,02,58,12.60
2008,05,17,02,59,12.70
2008,05,17,03,00,12.70
2008,05,17,03,01,12.60
2008,05,17,03,02,12.60
2008,05,17,03,03,12.60
2008,05,17,03,04,12.60
2008,05,17,03,05,12.60
2008,05,17,03,06,12.60
2008,05,17,03,07,12.60
2008,05,17,03,08,12.70
2008,05,17,03,09,12.70
2008,05,17,03,10,12.60
2008,05,17,03,11,12.60
2008,05,17,03,12,12.60
2008,05,17,03,13,12.60
2008,05,17,03,14,12.60
2008,05,17,03,15,12.50
2008,05,17,03,16,12.50
2008,05,17,03,17,12.50
2008,05,17,03,18,12.40
2008,05,17,03,19,12.40
2008,05,17,03,20,12.40
2008,05,17,03,21,12.40
2008,05,17,03,22,12.40
2008,05,17,03,23,12.40
2008,05,17,03,24,12.40
2008,05,17,03,25,12.40
2008,05,17,03,26,12.40
2008,05,17,03,27,12.40
2008,05,17,03,28,12.40
2008,05,17,03,29,12.40
2008,05,17,03,30,12.40
2008,05,17,03,31,12.40
2008,05,17,03,32,12.30
2008,05,17,03,33,12.30
2008,05,17,03,34,12.30
2008,05,17,03,35,12.30
2008,05,17,03,36,12.30
2008,05,17,03,37,12.30
2008,05,17,03,38,12.30
2008,05,17,03,39,12.30
2008,05,17,03,40,12.30
2008,05,17,03,41,12.30
2008,05,17,03,42,12.20
2008,05,17,03,43,12.20
2008,05,17,03,44,12.20
2008,05,17,03,45,12.20
2008,05,17,03,46,12.20
2008,05,17,03,47,12.20
2008,05,17,03,48,12.20
2008,05,17,03,49,12.20
2008,05,17,03,50,12.20
2008,05,17,03,51,12.30
2008,05,17,03,52,12.30
2008,05,17,03,53,12.30
2008,05,17,03,54,12.30
2008,05,17,03,55,12.30
2008,05,17,03,56,12.30
2008,05,17,03,57,12.30
2008,05,17,03,58,12.30
2008,05,17,03,59,12.30
2008,05,17,04,00,12.30
2008,05,17,04,01,12.30
2008,05,17,04,02,12.30
2008,05,17,04,03,12.30
2008,05,17,04,04,12.30
2008,05,17,04,05,12.30
2008,05,17,04,06,12.20
2008,05,17,04,07,12.30
2008,05,17,04,08,12.30
2008,05,17,04,09,12.20
2008,05,17,04,10,12.20
2008,05,17,04,11,12.20
2008,05,17,04,12,12.20
2008,05,17,04,13,12.10
2008,05,17,04,14,12.10
2008,05,17,04,15,12.10
2008,05,17,04,16,12.10
2008,05,17,04,17,12.10
2008,05,17,04,18,12.10
2008,05,17,04,19,12.20
2008,05,17,04,20,12.20
2008,05,17,04,21,12.20
2008,05,17,04,22,12.20
2008,05,17,04,23,12.20
2008,05,17,04,24,12.20
2008,05,17,04,25,12.10
2008,05,17,04,26,12.10
2008,05,17,04,27,12.10
2008,05,17,04,28,12.10
2008,05,17,04,29,12.10
2008,05,17,04,30,12.10
2008,05,17,04,31,12.10
2008,05,17,04,32,12.10
2008,05,17,04,33,12.10
2008,05,17,04,34,12.10
2008,05,17,04,35,12.10
2008,05,17,04,36,12.10
2008,05,17,04,37,12.00
2008,05,17,04,38,12.00
2008,05,17,04,39,12.00
2008,05,17,04,40,12.00
2008,05,17,04,41,12.00
2008,05,17,04,42,12.00
2008,05,17,04,43,11.90
2008,05,17,04,44,11.90
2008,05,17,04,45,11.90
2008,05,17,04,46,11.90
2008,05,17,04,47,12.00
2008,05,17,04,48,12.00
2008,05,17,04,49,12.00
2008,05,17,04,50,12.00
2008,05,17,04,51,12.00
2008,05,17,04,52,12.00
2008,05,17,04,53,11.90
2008,05,17,04,54,11.90
2008,05,17,04,55,11.90
2008,05,17,04,56,11.90
2008,05,17,04,57,11.90
2008,05,17,04,58,11.90
2008,05,17,04,59,11.90
2008,05,17,05,00,11.90
2008,05,17,05,01,11.90
2008,05,17,05,02,11.90
2008,05,17,05,03,11.90
2008,05,17,05,04,12.00
2008,05,17,05,05,12.00
2008,05,17,05,06,12.00
2008,05,17,05,07,12.00
2008,05,17,05,08,12.00
2008,05,17,05,09,12.00
2008,05,17,05,10,12.00
2008,05,17,05,11,12.00
2008,05,17,05,12,12.10
2008,05,17,05,13,12.00
2008,05,17,05,14,12.00
2008,05,17,05,15,12.00
2008,05,17,05,16,12.00
2008,05,17,05,17,12.00
2008,05,17,05,18,12.00
2008,05,17,05,19,12.00
2008,05,17,05,20,11.90
2008,05,17,05,21,11.90
2008,05,17,05,22,11.90
2008,05,17,05,23,11.90
2008,05,17,05,24,11.90
2008,05,17,05,25,11.90
2008,05,17,05,26,11.90
2008,05,17,05,27,11.90
2008,05,17,05,28,11.90
2008,05,17,05,29,11.90
2008,05,17,05,30,11.90
2008,05,17,05,31,12.00
2008,05,17,05,32,12.00
2008,05,17,05,33,12.00
2008,05,17,05,34,12.00
2008,05,17,05,35,11.90
2008,05,17,05,36,11.90
2008,05,17,05,37,11.90
2008,05,17,05,38,11.90
2008,05,17,05,39,11.90
2008,05,17,05,40,11.90
2008,05,17,05,41,11.90
2008,05,17,05,42,11.90
2008,05,17,05,43,12.00
2008,05,17,05,44,12.00
2008,05,17,05,45,12.00
2008,05,17,05,46,12.10
2008,05,17,05,47,12.20
2008,05,17,05,48,12.20
2008,05,17,05,49,12.20
2008,05,17,05,50,12.20
2008,05,17,05,51,12.20
2008,05,17,05,52,12.20
2008,05,17,05,53,12.20
2008,05,17,05,54,12.20
2008,05,17,05,55,12.10
2008,05,17,05,56,12.10
2008,05,17,05,57,12.10
2008,05,17,05,58,12.10
2008,05,17,05,59,12.10
2008,05,17,06,00,12.10
2008,05,17,06,01,12.10
2008,05,17,06,02,12.20
2008,05,17,06,03,12.20
2008,05,17,06,04,12.20
2008,05,17,06,05,12.20
2008,05,17,06,06,12.20
2008,05,17,06,07,12.20
2008,05,17,06,08,12.30
2008,05,17,06,09,12.30
2008,05,17,06,10,12.30
2008,05,17,06,11,12.30
2008,05,17,06,12,12.30
2008,05,17,06,13,12.30
2008,05,17,06,14,12.40
2008,05,17,06,15,12.40
2008,05,17,06,16,12.40
2008,05,17,06,17,12.40
2008,05,17,06,18,12.40
2008,05,17,06,19,12.40
2008,05,17,06,20,12.40
2008,05,17,06,21,12.50
2008,05,17,06,22,12.50
2008,05,17,06,23,12.50
2008,05,17,06,24,12.50
2008,05,17,06,25,12.50
2008,05,17,06,26,12.60
2008,05,17,06,27,12.60
2008,05,17,06,28,12.60
2008,05,17,06,29,12.60
2008,05,17,06,30,12.60
2008,05,17,06,31,12.60
2008,05,17,06,32,12.70
2008,05,17,06,33,12.70
2008,05,17,06,34,12.70
2008,05,17,06,35,12.70
2008,05,17,06,36,12.80
2008,05,17,06,37,12.80
2008,05,17,06,38,12.80
2008,05,17,06,39,12.80
2008,05,17,06,40,12.80
2008,05,17,06,41,12.90
2008,05,17,06,42,12.90
2008,05,17,06,43,12.90
2008,05,17,06,44,13.00
2008,05,17,06,45,13.00
2008,05,17,06,46,13.10
2008,05,17,06,47,13.10
2008,05,17,06,48,13.20
2008,05,17,06,49,13.20
2008,05,17,06,50,13.30
2008,05,17,06,51,13.30
2008,05,17,06,52,13.40
2008,05,17,06,53,13.40
2008,05,17,06,54,13.40
2008,05,17,06,55,13.50
2008,05,17,06,56,13.50
2008,05,17,06,57,13.60
2008,05,17,06,58,13.60
2008,05,17,06,59,13.60
2008,05,17,07,00,13.70
2008,05,17,07,01,13.80
2008,05,17,07,02,13.80
2008,05,17,07,03,13.90
2008,05,17,07,04,14.00
2008,05,17,07,05,14.00
2008,05,17,07,06,14.10
2008,05,17,07,07,14.20
2008,05,17,07,08,14.20
2008,05,17,07,09,14.30
2008,05,17,07,10,14.40
2008,05,17,07,11,14.50
2008,05,17,07,12,14.60
2008,05,17,07,13,14.70
2008,05,17,07,14,14.90
2008,05,17,07,15,15.00
2008,05,17,07,16,15.00
2008,05,17,07,17,15.10
2008,05,17,07,18,15.20
2008,05,17,07,19,15.40
2008,05,17,07,20,15.40
2008,05,17,07,21,15.50
2008,05,17,07,22,15.60
2008,05,17,07,23,15.80
2008,05,17,07,24,15.90
2008,05,17,07,25,16.10
2008,05,17,07,26,16.20
2008,05,17,07,27,16.30
2008,05,17,07,28,16.50
2008,05,17,07,29,16.60
2008,05,17,07,30,16.80
2008,05,17,07,31,16.90
2008,05,17,07,32,17.00
2008,05,17,07,33,17.20
2008,05,17,07,34,17.30
2008,05,17,07,35,17.40
2008,05,17,07,36,17.50
2008,05,17,07,37,17.60
2008,05,17,07,38,17.70
2008,05,17,07,39,17.80
2008,05,17,07,40,17.90
2008,05,17,07,41,18.00
2008,05,17,07,42,18.20
2008,05,17,07,43,18.20
2008,05,17,07,44,18.30
2008,05,17,07,45,18.40
2008,05,17,07,46,18.40
2008,05,17,07,47,18.40
2008,05,17,07,48,18.40
2008,05,17,07,49,18.50
2008,05,17,07,50,18.50
2008,05,17,07,51,18.50
2008,05,17,07,52,18.50
2008,05,17,07,53,18.50
2008,05,17,07,54,18.50
2008,05,17,07,55,18.50
2008,05,17,07,56,18.40
2008,05,17,07,57,18.40
2008,05,17,07,58,18.40
2008,05,17,07,59,18.30
2008,05,17,08,00,18.20
2008,05,17,08,01,18.20
2008,05,17,08,02,18.10
2008,05,17,08,03,18.10
2008,05,17,08,04,18.00
2008,05,17,08,05,17.90
2008,05,17,08,06,17.90
2008,05,17,08,07,18.00
2008,05,17,08,08,18.00
2008,05,17,08,09,18.00
2008,05,17,08,10,17.90
2008,05,17,08,11,17.90
2008,05,17,08,12,17.90
2008,05,17,08,13,17.80
2008,05,17,08,14,17.70
2008,05,17,08,15,17.60
2008,05,17,08,16,17.60
2008,05,17,08,17,17.60
2008,05,17,08,18,17.60
2008,05,17,08,19,17.50
2008,05,17,08,20,17.60
2008,05,17,08,21,17.60
2008,05,17,08,22,17.60
2008,05,17,08,23,17.60
2008,05,17,08,24,17.60
2008,05,17,08,25,17.70
2008,05,17,08,26,17.70
2008,05,17,08,27,17.80
2008,05,17,08,28,17.80
2008,05,17,08,29,17.80
2008,05,17,08,30,17.90
2008,05,17,08,31,17.90
2008,05,17,08,32,17.90
2008,05,17,08,33,17.90
2008,05,17,08,34,17.90
2008,05,17,08,35,17.90
2008,05,17,08,36,17.90
2008,05,17,08,37,17.90
2008,05,17,08,38,17.90
2008,05,17,08,39,17.90
2008,05,17,08,40,17.90
2008,05,17,08,41,17.90
2008,05,17,08,42,17.90
2008,05,17,08,43,17.80
2008,05,17,08,44,17.80
2008,05,17,08,45,17.80
2008,05,17,08,46,17.80
2008,05,17,08,47,17.80
2008,05,17,08,48,17.80
2008,05,17,08,49,17.80
2008,05,17,08,50,17.90
2008,05,17,08,51,17.90
2008,05,17,08,52,18.00
2008,05,17,08,53,18.10
2008,05,17,08,54,18.10
2008,05,17,08,55,18.20
2008,05,17,08,56,18.20
2008,05,17,08,57,18.20
2008,05,17,08,58,18.20
2008,05,17,08,59,18.20
2008,05,17,09,00,18.20
2008,05,17,09,01,18.20
2008,05,17,09,02,18.10
2008,05,17,09,03,18.20
2008,05,17,09,04,18.20
2008,05,17,09,05,18.20
2008,05,17,09,06,18.30
2008,05,17,09,07,18.30
2008,05,17,09,08,18.30
2008,05,17,09,09,18.30
2008,05,17,09,10,18.40
2008,05,17,09,11,18.40
2008,05,17,09,12,18.60
2008,05,17,09,13,18.60
2008,05,17,09,14,18.60
2008,05,17,09,15,18.60
2008,05,17,09,16,18.70
2008,05,17,09,17,18.80
2008,05,17,09,18,18.80
2008,05,17,09,19,18.90
2008,05,17,09,20,18.90
2008,05,17,09,21,18.90
2008,05,17,09,22,19.00
2008,05,17,09,23,19.10
2008,05,17,09,24,19.20
2008,05,17,09,25,19.20
2008,05,17,09,26,19.10
2008,05,17,09,27,19.10
2008,05,17,09,28,19.20
2008,05,17,09,29,19.30
2008,05,17,09,30,19.30
2008,05,17,09,31,19.30
2008,05,17,09,32,19.30
2008,05,17,09,33,19.40
2008,05,17,09,34,19.50
2008,05,17,09,35,19.60
2008,05,17,09,36,19.50
2008,05,17,09,37,19.40
2008,05,17,09,38,19.40
2008,05,17,09,39,19.40
2008,05,17,09,40,19.50
2008,05,17,09,41,19.60
2008,05,17,09,42,19.60
2008,05,17,09,43,19.50
2008,05,17,09,44,19.30
2008,05,17,09,45,19.20
2008,05,17,09,46,19.20
2008,05,17,09,47,19.20
2008,05,17,09,48,19.10
2008,05,17,09,49,19.10
2008,05,17,09,50,19.00
2008,05,17,09,51,18.90
2008,05,17,09,52,18.80
2008,05,17,09,53,18.60
2008,05,17,09,54,18.40
2008,05,17,09,55,18.20
2008,05,17,09,56,18.10
2008,05,17,09,57,18.00
2008,05,17,09,58,18.00
2008,05,17,09,59,17.90
2008,05,17,10,00,17.90
2008,05,17,10,01,17.80
2008,05,17,10,02,17.80
2008,05,17,10,03,17.80
2008,05,17,10,04,17.70
2008,05,17,10,05,17.70
2008,05,17,10,06,17.70
2008,05,17,10,07,17.70
2008,05,17,10,08,17.60
2008,05,17,10,09,17.60
2008,05,17,10,10,17.60
2008,05,17,10,11,17.50
2008,05,17,10,12,17.50
2008,05,17,10,13,17.50
2008,05,17,10,14,17.60
2008,05,17,10,15,17.60
2008,05,17,10,16,17.60
2008,05,17,10,17,17.70
2008,05,17,10,18,17.80
2008,05,17,10,19,17.90
2008,05,17,10,20,17.90
2008,05,17,10,21,18.00
2008,05,17,10,22,18.10
2008,05,17,10,23,18.10
2008,05,17,10,24,18.10
2008,05,17,10,25,18.10
2008,05,17,10,26,18.10
2008,05,17,10,27,18.10
2008,05,17,10,28,18.00
2008,05,17,10,29,18.00
2008,05,17,10,30,17.80
2008,05,17,10,31,17.60
2008,05,17,10,32,17.40
2008,05,17,10,33,17.30
2008,05,17,10,34,17.20
2008,05,17,10,35,17.20
2008,05,17,10,36,17.20
2008,05,17,10,37,17.20
2008,05,17,10,38,17.30
2008,05,17,10,39,17.30
2008,05,17,10,40,17.20
2008,05,17,10,41,17.20
2008,05,17,10,42,17.10
2008,05,17,10,43,17.10
2008,05,17,10,44,17.20
2008,05,17,10,45,17.20
2008,05,17,10,46,17.20
2008,05,17,10,47,17.20
2008,05,17,10,48,17.20
2008,05,17,10,49,17.20
2008,05,17,10,50,17.20
2008,05,17,10,51,17.20
2008,05,17,10,52,17.30
2008,05,17,10,53,17.40
2008,05,17,10,54,17.40
2008,05,17,10,55,17.50
2008,05,17,10,56,17.60
2008,05,17,10,57,17.60
2008,05,17,10,58,17.60
2008,05,17,10,59,17.70
2008,05,17,11,00,17.70
2008,05,17,11,01,17.70
2008,05,17,11,02,17.80
2008,05,17,11,03,17.90
2008,05,17,11,04,17.90
2008,05,17,11,05,18.00
2008,05,17,11,06,18.00
2008,05,17,11,07,18.10
2008,05,17,11,08,18.20
2008,05,17,11,09,18.30
2008,05,17,11,10,18.30
2008,05,17,11,11,18.40
2008,05,17,11,12,18.40
2008,05,17,11,13,18.50
2008,05,17,11,14,18.60
2008,05,17,11,15,18.70
2008,05,17,11,16,18.80
2008,05,17,11,17,18.80
2008,05,17,11,18,18.80
2008,05,17,11,19,18.80
2008,05,17,11,20,18.70
2008,05,17,11,21,18.60
2008,05,17,11,22,18.50
2008,05,17,11,23,18.40
2008,05,17,11,24,18.40
2008,05,17,11,25,18.30
2008,05,17,11,26,18.30
2008,05,17,11,27,18.30
2008,05,17,11,28,18.30
2008,05,17,11,29,18.30
2008,05,17,11,30,18.20
2008,05,17,11,31,18.20
2008,05,17,11,32,18.10
2008,05,17,11,33,18.10
2008,05,17,11,34,18.10
2008,05,17,11,35,18.00
2008,05,17,11,36,18.00
2008,05,17,11,37,17.90
2008,05,17,11,38,18.00
2008,05,17,11,39,18.00
2008,05,17,11,40,18.10
2008,05,17,11,41,18.10
2008,05,17,11,42,18.10
2008,05,17,11,43,18.10
2008,05,17,11,44,18.20
2008,05,17,11,45,18.20
2008,05,17,11,46,18.20
2008,05,17,11,47,18.20
2008,05,17,11,48,18.20
2008,05,17,11,49,18.20
2008,05,17,11,50,18.20
2008,05,17,11,51,18.20
2008,05,17,11,52,18.20
2008,05,17,11,53,18.20
2008,05,17,11,54,18.20
2008,05,17,11,55,18.20
2008,05,17,11,56,18.10
2008,05,17,11,57,18.10
2008,05,17,11,58,18.20
2008,05,17,11,59,18.30
2008,05,17,12,00,18.30
2008,05,17,12,01,18.30
2008,05,17,12,02,18.30
2008,05,17,12,03,18.30
2008,05,17,12,04,18.30
2008,05,17,12,05,18.30
2008,05,17,12,06,18.40
2008,05,17,12,07,18.40
2008,05,17,12,08,18.30
2008,05,17,12,09,18.20
2008,05,17,12,10,18.00
2008,05,17,12,11,18.00
2008,05,17,12,12,17.90
2008,05,17,12,13,17.90
2008,05,17,12,14,17.80
2008,05,17,12,15,17.90
2008,05,17,12,16,17.90
2008,05,17,12,17,17.80
2008,05,17,12,18,17.80
2008,05,17,12,19,17.80
2008,05,17,12,20,17.80
2008,05,17,12,21,17.80
2008,05,17,12,22,17.80
2008,05,17,12,23,17.70
2008,05,17,12,24,17.70
2008,05,17,12,25,17.60
2008,05,17,12,26,17.60
2008,05,17,12,27,17.60
2008,05,17,12,28,17.70
2008,05,17,12,29,17.70
2008,05,17,12,30,17.70
2008,05,17,12,31,17.80
2008,05,17,12,32,17.80
2008,05,17,12,33,17.90
2008,05,17,12,34,18.10
2008,05,17,12,35,18.20
2008,05,17,12,36,18.40
2008,05,17,12,37,18.50
2008,05,17,12,38,18.60
2008,05,17,12,39,18.60
2008,05,17,12,40,18.60
2008,05,17,12,41,18.50
2008,05,17,12,42,18.50
2008,05,17,12,43,18.40
2008,05,17,12,44,18.50
2008,05,17,12,45,18.50
2008,05,17,12,46,18.60
2008,05,17,12,47,18.70
2008,05,17,12,48,18.80
2008,05,17,12,49,18.90
2008,05,17,12,50,19.10
2008,05,17,12,51,19.20
2008,05,17,12,52,19.30
2008,05,17,12,53,19.50
2008,05,17,12,54,19.70
2008,05,17,12,55,19.80
2008,05,17,12,56,19.90
2008,05,17,12,57,19.90
2008,05,17,12,58,20.00
2008,05,17,12,59,20.10
2008,05,17,13,00,20.20
2008,05,17,13,01,20.30
2008,05,17,13,02,20.50
2008,05,17,13,03,20.60
2008,05,17,13,04,20.70
2008,05,17,13,05,20.70
2008,05,17,13,06,20.70
2008,05,17,13,07,20.80
2008,05,17,13,08,20.80
2008,05,17,13,09,20.80
2008,05,17,13,10,20.80
2008,05,17,13,11,20.80
2008,05,17,13,12,20.70
2008,05,17,13,13,20.60
2008,05,17,13,14,20.60
2008,05,17,13,15,20.50
2008,05,17,13,16,20.40
2008,05,17,13,17,20.30
2008,05,17,13,18,20.30
2008,05,17,13,19,20.20
2008,05,17,13,20,20.20
2008,05,17,13,21,20.10
2008,05,17,13,22,20.10
2008,05,17,13,23,20.10
2008,05,17,13,24,20.00
2008,05,17,13,25,20.00
2008,05,17,13,26,20.00
2008,05,17,13,27,20.10
2008,05,17,13,28,20.10
2008,05,17,13,29,20.10
2008,05,17,13,30,20.00
2008,05,17,13,31,19.90
2008,05,17,13,32,19.90
2008,05,17,13,33,20.00
2008,05,17,13,34,20.00
2008,05,17,13,35,20.00
2008,05,17,13,36,20.20
2008,05,17,13,37,20.30
2008,05,17,13,38,20.40
2008,05,17,13,39,20.40
2008,05,17,13,40,20.40
2008,05,17,13,41,20.30
2008,05,17,13,42,20.30
2008,05,17,13,43,20.30
2008,05,17,13,44,20.30
2008,05,17,13,45,20.40
2008,05,17,13,46,20.50
2008,05,17,13,47,20.60
2008,05,17,13,48,20.70
2008,05,17,13,49,20.60
2008,05,17,13,50,20.60
2008,05,17,13,51,20.60
2008,05,17,13,52,20.70
2008,05,17,13,53,20.70
2008,05,17,13,54,20.70
2008,05,17,13,55,20.60
2008,05,17,13,56,20.70
2008,05,17,13,57,20.70
2008,05,17,13,58,20.60
2008,05,17,13,59,20.70
2008,05,17,14,00,20.70
2008,05,17,14,01,20.70
2008,05,17,14,02,20.80
2008,05,17,14,03,20.80
2008,05,17,14,04,20.90
2008,05,17,14,05,20.90
2008,05,17,14,06,21.00
2008,05,17,14,07,21.10
2008,05,17,14,08,21.20
2008,05,17,14,09,21.40
2008,05,17,14,10,21.40
2008,05,17,14,11,21.40
2008,05,17,14,12,21.50
2008,05,17,14,13,21.50
2008,05,17,14,14,21.50
2008,05,17,14,15,21.60
2008,05,17,14,16,21.80
2008,05,17,14,17,21.90
2008,05,17,14,18,22.10
2008,05,17,14,19,22.20
2008,05,17,14,20,22.40
2008,05,17,14,21,22.50
2008,05,17,14,22,22.60
2008,05,17,14,23,22.70
2008,05,17,14,24,22.70
2008,05,17,14,25,22.70
2008,05,17,14,26,22.70
2008,05,17,14,27,22.70
2008,05,17,14,28,22.50
2008,05,17,14,29,22.40
2008,05,17,14,30,22.30
2008,05,17,14,31,22.30
2008,05,17,14,32,22.30
2008,05,17,14,33,22.20
2008,05,17,14,34,22.20
2008,05,17,14,35,22.30
2008,05,17,14,36,22.30
2008,05,17,14,37,22.40
2008,05,17,14,38,22.40
2008,05,17,14,39,22.40
2008,05,17,14,40,22.40
2008,05,17,14,41,22.30
2008,05,17,14,42,22.30
2008,05,17,14,43,22.30
2008,05,17,14,44,22.30
2008,05,17,14,45,22.20
2008,05,17,14,46,22.10
2008,05,17,14,47,22.10
2008,05,17,14,48,22.10
2008,05,17,14,49,22.20
2008,05,17,14,50,22.30
2008,05,17,14,51,22.30
2008,05,17,14,52,22.30
2008,05,17,14,53,22.50
2008,05,17,14,54,22.90
2008,05,17,14,55,23.40
2008,05,17,14,56,23.80
2008,05,17,14,57,24.20
2008,05,17,14,58,24.80
2008,05,17,14,59,25.30
2008,05,17,15,00,25.80
2008,05,17,15,01,26.00
2008,05,17,15,02,25.60
2008,05,17,15,03,25.30
2008,05,17,15,04,25.10
2008,05,17,15,05,24.90
2008,05,17,15,06,24.60
2008,05,17,15,07,24.50
2008,05,17,15,08,24.30
2008,05,17,15,09,24.20
2008,05,17,15,10,24.30
2008,05,17,15,11,24.50
2008,05,17,15,12,24.60
2008,05,17,15,13,24.70
2008,05,17,15,14,25.00
2008,05,17,15,15,25.40
2008,05,17,15,16,25.80
2008,05,17,15,17,26.10
2008,05,17,15,18,26.50
2008,05,17,15,19,26.80
2008,05,17,15,20,27.20
2008,05,17,15,21,27.40
2008,05,17,15,22,27.60
2008,05,17,15,23,27.80
2008,05,17,15,24,28.00
2008,05,17,15,25,28.20
2008,05,17,15,26,28.30
2008,05,17,15,27,28.30
2008,05,17,15,28,28.40
2008,05,17,15,29,28.50
2008,05,17,15,30,28.60
2008,05,17,15,31,28.70
2008,05,17,15,32,28.70
2008,05,17,15,33,28.70
2008,05,17,15,34,28.70
2008,05,17,15,35,28.60
2008,05,17,15,36,28.60
2008,05,17,15,37,28.60
2008,05,17,15,38,28.70
2008,05,17,15,39,28.60
2008,05,17,15,40,28.60
2008,05,17,15,41,28.50
2008,05,17,15,42,28.50
2008,05,17,15,43,28.40
2008,05,17,15,44,28.50
2008,05,17,15,45,28.50
2008,05,17,15,46,28.60
2008,05,17,15,47,28.60
2008,05,17,15,48,28.60
2008,05,17,15,49,28.70
2008,05,17,15,50,28.70
2008,05,17,15,51,28.80
2008,05,17,15,52,28.80
2008,05,17,15,53,28.80
2008,05,17,15,54,28.80
2008,05,17,15,55,28.70
2008,05,17,15,56,28.80
2008,05,17,15,57,28.80
2008,05,17,15,58,28.90
2008,05,17,15,59,28.90
2008,05,17,16,00,28.80
2008,05,17,16,01,28.70
2008,05,17,16,02,28.70
2008,05,17,16,03,28.60
2008,05,17,16,04,28.40
2008,05,17,16,05,28.30
2008,05,17,16,06,28.20
2008,05,17,16,07,28.10
2008,05,17,16,08,28.00
2008,05,17,16,09,28.00
2008,05,17,16,10,27.90
2008,05,17,16,11,27.80
2008,05,17,16,12,27.80
2008,05,17,16,13,27.80
2008,05,17,16,14,27.80
2008,05,17,16,15,27.90
2008,05,17,16,16,27.90
2008,05,17,16,17,28.10
2008,05,17,16,18,28.20
2008,05,17,16,19,28.20
2008,05,17,16,20,28.20
2008,05,17,16,21,28.20
2008,05,17,16,22,28.10
2008,05,17,16,23,28.10
2008,05,17,16,24,28.00
2008,05,17,16,25,27.90
2008,05,17,16,26,27.80
2008,05,17,16,27,27.80
2008,05,17,16,28,27.80
2008,05,17,16,29,27.80
2008,05,17,16,30,27.80
2008,05,17,16,31,27.90
2008,05,17,16,32,28.00
2008,05,17,16,33,28.10
2008,05,17,16,34,28.10
2008,05,17,16,35,28.10
2008,05,17,16,36,28.00
2008,05,17,16,37,28.00
2008,05,17,16,38,28.00
2008,05,17,16,39,28.00
2008,05,17,16,40,27.90
2008,05,17,16,41,28.00
2008,05,17,16,42,27.90
2008,05,17,16,43,27.80
2008,05,17,16,44,27.80
2008,05,17,16,45,27.80
2008,05,17,16,46,27.80
2008,05,17,16,47,27.80
2008,05,17,16,48,27.70
2008,05,17,16,49,27.60
2008,05,17,16,50,27.60
2008,05,17,16,51,27.70
2008,05,17,16,52,27.70
2008,05,17,16,53,27.60
2008,05,17,16,54,27.60
2008,05,17,16,55,27.50
2008,05,17,16,56,27.50
2008,05,17,16,57,27.40
2008,05,17,16,58,27.40
2008,05,17,16,59,27.30
2008,05,17,17,00,27.30
2008,05,17,17,01,27.30
2008,05,17,17,02,27.40
2008,05,17,17,03,27.50
2008,05,17,17,04,27.60
2008,05,17,17,05,27.50
2008,05,17,17,06,27.50
2008,05,17,17,07,27.50
2008,05,17,17,08,27.40
2008,05,17,17,09,27.40
2008,05,17,17,10,27.30
2008,05,17,17,11,27.10
2008,05,17,17,12,27.00
2008,05,17,17,13,26.90
2008,05,17,17,14,26.80
2008,05,17,17,15,26.80
2008,05,17,17,16,26.80
2008,05,17,17,17,26.70
2008,05,17,17,18,26.70
2008,05,17,17,19,26.60
2008,05,17,17,20,26.40
2008,05,17,17,21,26.30
2008,05,17,17,22,26.20
2008,05,17,17,23,26.10
2008,05,17,17,24,26.00
2008,05,17,17,25,25.90
2008,05,17,17,26,25.90
2008,05,17,17,27,25.90
2008,05,17,17,28,25.90
2008,05,17,17,29,25.90
2008,05,17,17,30,25.90
2008,05,17,17,31,25.90
2008,05,17,17,32,25.90
2008,05,17,17,33,25.90
2008,05,17,17,34,25.90
2008,05,17,17,35,25.90
2008,05,17,17,36,25.90
2008,05,17,17,37,25.90
2008,05,17,17,38,25.90
2008,05,17,17,39,25.90
2008,05,17,17,40,25.90
2008,05,17,17,41,25.90
2008,05,17,17,42,25.90
2008,05,17,17,43,25.90
2008,05,17,17,44,25.90
2008,05,17,17,45,25.80
2008,05,17,17,46,25.80
2008,05,17,17,47,25.70
2008,05,17,17,48,25.70
2008,05,17,17,49,25.60
2008,05,17,17,50,25.50
2008,05,17,17,51,25.50
2008,05,17,17,52,25.40
2008,05,17,17,53,25.30
2008,05,17,17,54,25.30
2008,05,17,17,55,25.30
2008,05,17,17,56,25.20
2008,05,17,17,57,25.20
2008,05,17,17,58,25.30
2008,05,17,17,59,25.30
2008,05,17,18,00,25.30
2008,05,17,18,01,25.30
2008,05,17,18,02,25.20
2008,05,17,18,03,25.20
2008,05,17,18,04,25.20
2008,05,17,18,05,25.20
2008,05,17,18,06,25.20
2008,05,17,18,07,25.20